Location: Plaitford
(50.9667°N, 1.6000°W)
Time: 23:46:31
(UTC+00:00)

Daily predictions for brighter satellites

Satellite Brightness Start Highest point End
(mag) Time Altitude Azimuth Time Altitude Azimuth Time Altitude Azimuth
Cosmos 1833 Rocket 2.9 17:26:40 10° NNW 17:32:11 52° NE 17:37:39 10° SE
Unknown 3.7 17:30:30 10° W 17:34:40 73° N 17:38:49 10° ENE
Unknown 3.8 17:33:51 10° W 17:38:00 72° N 17:42:09 10° ENE
Unknown 3.8 17:35:33 10° W 17:39:43 71° N 17:43:51 10° ENE
Cosmos 2084 3.9 17:35:22 10° WSW 17:39:52 65° NW 17:44:19 10° NE
Unknown 3.8 17:37:09 10° W 17:41:18 71° N 17:45:27 10° ENE
Cosmos 1328 3.8 17:37:35 10° N 17:41:33 62° ENE 17:45:28 10° SSE
Cosmos 1271 Rocket 3.6 17:37:53 10° NNW 17:41:49 57° W 17:45:45 10° S
Unknown 3.8 17:38:46 10° W 17:42:55 71° N 17:47:04 10° ENE
SKYMED 2 4.3 17:39:32 10° NNE 17:43:28 32° E 17:47:22 10° SSE
SMAP 3.7 17:39:36 10° S 17:44:13 63° WSW 17:48:52 10° NNW
Ariane Rocket 4.1 17:40:27 10° ESE 17:44:29 24° ENE 17:48:32 10° N
Cosmos 2228 3.0 17:40:19 10° S 17:44:41 84° E 17:49:02 10° NNE
Unknown 3.8 17:40:32 10° W 17:44:41 70° N 17:48:48 10° ENE
Unknown 3.8 17:41:58 10° W 17:46:06 71° N 17:50:10 11° ENE
Cosmos 1992 Rocket 4.4 17:41:28 10° SSW 17:46:41 70° WNW 17:51:55 10° NNE
YAOGAN 1 3.1 17:42:49 10° SE 17:46:48 37° ENE 17:50:49 10° N
Unknown 3.8 17:45:18 10° W 17:49:26 70° N 17:53:22 11° ENE
Unknown 3.8 17:46:58 10° W 17:51:07 69° N 17:54:58 12° ENE
Cosmos 921 Rocket 3.1 17:47:17 10° SSW 17:51:48 89° WNW 17:56:16 10° NNE
Unknown 3.8 17:48:51 10° W 17:52:59 68° N 17:56:46 12° ENE
Cosmos 1300 4.3 17:51:55 10° ESE 17:54:12 15° E 17:56:31 10° NE
Unknown 3.8 17:50:19 10° W 17:54:27 68° N 17:58:10 13° ENE
Cosmos 1726 Rocket 3.6 17:50:06 10° SSW 17:54:29 84° W 17:58:53 10° N
Unknown 3.6 17:50:41 10° W 17:54:34 63° N 17:57:58 13° E
Abrixas rocket 3.3 17:52:42 10° SW 17:55:23 28° SSE 17:57:37 13° ESE
Cosmos 1939 Rocket 4.0 17:52:18 10° ESE 17:55:36 25° ENE 17:58:57 10° N
Unknown 3.8 17:51:56 10° W 17:56:04 68° N 17:59:43 13° ENE
Cosmos 489 Rocket 4.5 17:50:29 10° S 17:56:35 63° ESE 18:02:43 10° NNE
CZ-2D R/B 4.2 17:55:27 10° SE 17:58:45 27° ENE 18:02:05 10° N
Unknown 3.8 17:55:19 10° W 17:59:28 67° N 18:02:58 14° ENE
H-2A R/B 3.9 17:55:49 10° S 17:59:37 49° W 18:03:28 10° NNW
Unknown 3.8 17:56:57 10° W 18:01:06 67° N 18:04:32 15° ENE
Cosmos 1777 Rocket 4.1 17:57:16 10° NNW 18:02:31 82° WSW 18:07:43 10° SSE
Unknown 3.8 17:58:39 10° W 18:02:47 67° N 18:06:09 15° ENE
Cosmos 2082 Rocket 2.3 17:57:26 10° NNW 18:03:08 60° NE 18:08:45 10° SE
Unknown 3.8 18:00:12 10° W 18:04:14 64° N 18:07:24 16° E
Unknown 3.8 18:00:17 10° W 18:04:25 66° N 18:07:43 16° ENE
BREEZE-M DEB (TANK) 3.8 18:00:20 10° WNW 18:04:30 70° SSW 18:15:18 10° ESE
CSL-04 Debris 4.2 17:59:45 10° SSE 18:05:08 63° ENE 18:10:34 10° N
Unknown 3.8 18:03:42 10° W 18:07:50 66° N 18:10:59 17° ENE
Cosmos 1242 Rocket 3.6 18:04:31 10° NNW 18:08:07 50° W 18:11:40 10° S
Unknown 3.8 18:04:45 10° W 18:08:53 65° N 18:11:59 17° ENE
ASTEX 1 3.3 18:04:07 10° N 18:09:06 75° E 18:14:05 10° S
Unknown 3.8 18:05:29 10° W 18:09:37 65° N 18:12:41 17° ENE
USA 116 4.1 18:06:49 10° NE 18:09:42 30° E 18:12:46 10° SSE
Unknown 3.8 18:06:48 10° W 18:10:52 64° N 18:13:50 18° ENE
Unknown 3.8 18:07:12 10° W 18:11:21 65° N 18:14:20 18° ENE
Cosmos 1844 Rocket 3.7 18:08:53 10° SW 18:14:20 47° NW 18:19:46 10° NNE
Unknown 3.8 18:10:21 10° W 18:14:28 65° N 18:17:21 19° ENE
Unknown 3.8 18:13:01 10° WNW 18:16:21 50° SSW 18:19:11 13° SE
Cosmos 1703 3.8 18:12:58 10° NNW 18:16:53 62° W 18:20:45 10° S
Unknown 3.8 18:13:40 10° W 18:17:48 65° N 18:20:32 20° ENE
Cosmos 1461 3.4 18:14:34 10° NW 18:18:36 60° SW 18:22:45 10° SSE
Unknown 3.8 18:15:20 10° W 18:19:28 65° N 18:22:08 21° ENE
Cosmos 2058 Rocket 3.4 18:16:12 10° SSW 18:20:32 69° WNW 18:24:55 10° N
Unknown 3.8 18:16:58 10° W 18:21:06 65° N 18:23:42 22° ENE
Lacrosse 5 2.1 18:17:35 10° WNW 18:22:38 69° SW 18:27:31 11° SE
Unknown 3.8 18:18:39 10° W 18:22:47 64° N 18:25:18 22° ENE
SL-27 R/B 4.4 18:22:21 10° NNE 18:23:39 14° NE 18:23:39 14° NE
SJ 16-02 2.5 18:20:50 10° N 18:24:30 25° NE 18:25:44 22° E
FALCON 9 DEB 3.8 18:22:11 10° WNW 18:25:34 50° SSW 18:28:00 17° SE
CZ-4 R/B 1.7 18:22:13 10° S 18:26:25 75° WSW 18:30:40 10° NNW
ATLAS CENTAUR R/B 3.4 18:25:05 10° NNW 18:28:16 18° NNE 18:30:12 14° NE
Unknown 3.8 18:25:20 10° W 18:29:27 64° N 18:31:42 25° ENE
Unknown 3.8 18:27:01 10° W 18:31:09 64° N 18:33:20 26° ENE
COSMO-SKYMED 1 2.5 18:27:20 10° NNE 18:31:43 90° W 18:36:04 10° SSW
Cosmos 2084 Rocket 3.5 18:28:16 10° NW 18:32:44 89° SW 18:36:06 17° SE
Unknown 3.8 18:28:39 10° W 18:32:47 64° N 18:34:53 27° ENE
ATLAS 3B R/B 3.6 18:28:37 10° SSE 18:33:41 23° ESE 18:35:04 22° E
ATLAS 5 CENTAUR R/B 3.3 18:30:12 10° W 18:34:14 30° NNW 18:38:48 10° NE
Unknown 3.8 18:30:19 10° W 18:34:27 64° N 18:36:29 28° ENE
Unknown 3.8 18:31:59 10° W 18:36:07 64° N 18:38:04 29° ENE
Cosmos 1726 3.4 18:33:35 10° SSW 18:37:04 42° WNW 18:40:35 10° N
Unknown 3.3 18:34:21 10° WNW 18:38:07 88° SSW 18:39:39 34° ESE
Cosmos 1908 3.6 18:34:19 10° SSW 18:38:11 65° WNW 18:42:04 10° N
Unknown 3.8 18:35:18 10° W 18:39:26 65° N 18:41:16 31° ENE
Falcon 9 debris 4.3 18:36:59 10° W 18:40:12 37° SSW 18:42:11 19° SSE
Envisat 4.1 18:35:40 10° S 18:40:32 46° W 18:45:27 10° NNW
Unknown 4.0 18:37:28 10° WNW 18:40:51 46° SSW 18:42:37 24° SSE
Starlink (trailer) 3.8 18:36:58 10° W 18:41:06 65° N 18:42:51 32° ENE
CENTAUR R/B 3.4 18:36:33 10° SSE 18:41:26 26° ESE 18:42:36 25° E
Cosmos 1339 Rocket 4.5 18:35:42 10° S 18:41:48 87° W 18:48:02 10° N
Unknown 3.8 18:38:40 10° W 18:42:48 65° N 18:44:29 33° ENE
Cosmos 1459 Rocket 4.0 18:36:58 10° N 18:43:06 56° ENE 18:49:17 10° SSE
H-2A R/B 3.0 18:42:58 26° E 18:44:07 28° ENE 18:48:42 10° N
Unknown 3.8 18:40:20 10° W 18:44:28 65° N 18:46:04 35° ENE
Cosmos 2061 Rocket 4.3 18:38:42 10° N 18:44:40 44° ENE 18:49:20 16° SE
Cosmos 2278 Rocket 2.2 18:40:26 10° SSW 18:46:08 87° WNW 18:51:52 10° NNE
SJ-6B 4.3 18:47:30 20° NE 18:47:30 20° NE 18:49:21 10° N
Cosmos 1898 Rocket 3.6 18:41:39 10° NNW 18:46:52 57° ENE 18:50:02 23° SE
Cosmos 1766 Rocket 4.2 18:44:40 10° N 18:48:34 33° ENE 18:48:34 33° ENE
Unknown 3.7 18:45:00 10° WNW 18:49:07 66° N 18:50:31 38° ENE
Cosmos 2297 4.1 18:44:56 10° S 18:50:09 39° ESE 18:53:21 21° NE
Unknown 3.7 18:46:59 10° WNW 18:51:07 66° N 18:52:27 40° ENE
Unknown 3.7 18:48:51 10° WNW 18:53:01 66° N 18:54:17 41° ENE
EO 1 Delta rocket 4.4 18:49:32 10° S 18:54:07 63° W 18:59:19 10° NNW
Unknown 3.7 18:50:17 10° WNW 18:54:27 67° N 18:55:40 43° ENE
Unknown 3.7 18:52:00 10° WNW 18:56:08 67° N 18:57:15 45° ENE
CSL-04 Rocket 4.4 18:51:37 10° S 18:57:03 56° WSW 19:02:26 10° NNW
Unknown 3.7 18:53:46 10° WNW 18:57:55 67° N 18:58:57 47° ENE
Okean 3 Rocket 3.7 18:54:29 10° N 18:58:58 53° ENE 19:00:14 39° SE
Cosmos 1076 Rocket 3.6 18:54:55 10° NNW 18:59:19 78° W 19:03:38 10° S
Unknown 3.7 18:57:06 10° WNW 19:01:14 68° N 19:02:08 50° ENE
Unknown 3.7 18:57:10 10° WNW 19:01:18 68° N 19:02:12 50° ENE
Unknown 3.7 18:58:38 10° WNW 19:02:47 68° N 19:03:37 52° ENE
Resurs 01 Rocket 3.6 19:06:07 16° NNE 19:06:07 16° NNE 19:07:30 10° NNE
DMSP B5D1-3 4.4 18:59:33 10° NNE 19:04:43 80° ESE 19:09:52 10° SSW
ARGOS 3.7 19:05:12 37° ENE 19:05:45 37° ENE 19:10:44 10° N
Unknown 3.7 19:01:53 10° WNW 19:06:02 68° N 19:06:44 55° ENE
USA 238 DEB 3.6 19:00:29 10° SW 19:07:11 78° SE 19:12:35 18° NE
USA 238 3.6 19:00:35 10° SW 19:07:17 77° SE 19:12:37 18° NE
Cosmos 1892 3.5 19:04:18 10° N 19:06:54 36° NNE 19:06:54 36° NNE
Cosmos 1727 Rocket 4.0 19:02:59 10° SSW 19:09:09 80° WNW 19:15:23 10° N
Unknown 3.6 19:05:18 10° WNW 19:09:27 70° N 19:10:01 60° ENE
Cosmos 2058 2.9 19:05:38 10° NNW 19:09:52 82° W 19:13:00 18° S
Cosmos 44 3.5 19:05:24 10° SSW 19:09:47 44° SE 19:09:47 44° SE
Unknown 3.6 19:06:59 10° WNW 19:11:08 70° N 19:11:37 62° NE
Cosmos 2173 Rocket 3.9 19:05:12 10° N 19:11:31 85° E 19:17:41 10° S
Unknown 3.3 19:07:41 10° WNW 19:11:32 80° SSW 19:11:46 75° SSE
Unknown 3.6 19:08:39 10° WNW 19:12:48 71° N 19:13:13 64° NE
Cosmos 1812 Rocket 3.9 19:08:37 10° SSW 19:13:02 67° WNW 19:17:30 10° N
Unknown 3.5 19:10:20 10° WNW 19:14:29 71° N 19:14:50 66° NE
Cosmos 1833 Rocket 4.3 19:10:57 10° NW 19:15:55 33° WSW 19:20:51 10° SSW
Cosmos 1864 Rocket 4.5 19:10:50 10° N 19:16:54 56° ENE 19:18:58 39° SE
Unknown 3.5 19:13:40 10° WNW 19:17:49 72° N 19:18:02 70° NE
Unknown 3.5 19:15:23 10° WNW 19:19:32 73° N 19:19:41 72° NNE
Cosmos 1802 Rocket 3.9 19:13:41 10° N 19:20:11 82° E 19:26:32 10° SSE
Cosmos 2151 2.9 19:16:41 10° N 19:20:43 66° NE 19:20:43 66° NE
Unknown 3.5 19:16:57 10° WNW 19:21:07 73° NNE 19:21:12 73° NNE
Unknown 3.6 19:18:35 10° WNW 19:22:44 73° N 19:22:45 73° NNE
Ariane Rocket 3.4 19:18:00 10° S 19:23:04 63° WSW 19:28:09 10° NNW
Unknown 3.6 19:20:22 10° WNW 19:24:29 75° N 19:24:29 75° N
MOS 1 4.2 19:20:54 20° SSE 19:24:56 89° WSW 19:30:38 10° NNW
Unknown 3.6 19:21:47 10° WNW 19:25:49 73° N 19:25:49 73° N
Cosmos 2123 Rocket 4.1 19:24:50 40° SE 19:26:33 51° E 19:32:36 10° NNE
HJ-1C 4.2 19:28:24 49° W 19:28:24 49° W 19:31:40 10° NNW
Cosmos 468 Rocket 4.0 19:23:37 10° S 19:28:19 58° SE 19:28:19 58° SE
Unknown 3.7 19:25:06 10° WNW 19:29:01 71° NNW 19:29:01 71° NNW
Cosmos 1300 3.5 19:25:45 10° SSW 19:29:28 51° WNW 19:33:13 10° N
NOSS 3-2 (A) 3.3 19:24:21 10° SW 19:30:15 88° SE 19:33:48 29° NE
Cosmos 1939 Rocket 4.2 19:26:35 10° SSW 19:30:22 39° W 19:34:13 10° NNW
Unknown 3.7 19:26:47 10° WNW 19:30:37 70° NNW 19:30:37 70° NNW
Abrixas rocket 4.1 19:27:59 10° WSW 19:29:28 25° WSW 19:29:28 25° WSW
Cosmos 2150 Rocket 4.5 19:25:55 10° NNW 19:30:47 45° NE 19:30:47 45° NE
Unknown 3.8 19:28:39 10° WNW 19:32:25 69° NW 19:32:25 69° NW
Cosmos 2233 Rocket 4.2 19:26:49 10° N 19:32:55 49° ENE 19:32:56 49° ENE
Unknown 3.9 19:29:25 10° WNW 19:32:44 59° W 19:32:44 59° W
Cosmos 1725 Rocket 3.9 19:27:45 10° N 19:34:04 72° ENE 19:36:08 44° SSE
Unknown 3.8 19:30:07 10° WNW 19:33:49 67° NW 19:33:49 67° NW
Cosmos 1000 Rocket 4.4 19:28:16 10° S 19:34:28 89° E 19:40:48 10° N
Unknown 3.9 19:31:44 10° WNW 19:35:22 65° NW 19:35:22 65° NW
CZ-2C R/B 3.6 19:38:10 47° NE 19:38:10 47° NE 19:43:08 10° N
Cosmos 1937 Rocket 3.4 19:33:22 10° NNW 19:38:33 81° WSW 19:39:25 61° S
Cosmos 990 Rocket 4.3 19:33:44 10° NNW 19:38:54 65° WSW 19:40:46 39° S
Cosmos 2100 Rocket 4.4 19:32:53 10° NNW 19:38:58 60° W 19:44:59 10° S
Unknown 4.0 19:35:07 10° WNW 19:38:37 61° NW 19:38:37 61° NW
Unknown 4.1 19:36:44 10° WNW 19:40:11 59° WNW 19:40:11 59° WNW
Unknown 4.2 19:38:25 10° WNW 19:41:48 57° WNW 19:41:48 57° WNW
Cosmos 2227 Rocket 4.4 19:40:39 10° N 19:42:57 12° NNE 19:43:33 12° NNE
Unknown 4.3 19:39:33 10° WNW 19:42:42 53° WNW 19:42:42 53° WNW
Unknown 4.2 19:40:04 10° WNW 19:43:22 55° WNW 19:43:22 55° WNW
Cosmos 2082 Rocket 4.1 19:42:04 10° NW 19:46:51 28° WSW 19:51:35 10° SSW
Unknown 4.4 19:43:28 10° WNW 19:46:38 51° WNW 19:46:38 51° WNW
Cosmos 2297 Rocket 4.3 19:45:21 10° N 19:47:56 13° NNE 19:48:12 13° NNE
Unknown 4.4 19:44:31 10° WNW 19:47:38 50° WNW 19:47:38 50° WNW
Unknown 4.5 19:45:14 10° WNW 19:48:20 49° WNW 19:48:20 49° WNW
ADEOS Rocket 3.4 19:42:38 10° NNE 19:50:19 64° E 19:57:23 10° S
NOSS 3-2 (C) 3.3 19:50:08 10° SW 19:56:03 87° SE 19:57:04 65° NE
Cosmos 2016 Rocket 4.2 19:50:02 10° NNW 19:56:16 68° W 20:00:06 25° S
Cosmos 2298 Rocket 4.3 19:55:31 10° NNW 19:59:54 59° N 19:59:54 59° N
SJ 16-02 2.4 19:59:06 10° NNW 20:02:46 44° W 20:02:46 44° W
Lacrosse 5 4.1 20:01:37 10° W 20:04:51 17° WSW 20:06:45 14° SSW
SPOT 3 Rocket 3.8 20:07:18 65° WSW 20:07:18 65° WSW 20:12:31 10° NNW
ATLAS CENTAUR R/B 3.2 20:03:58 10° NW 20:06:23 27° NNW 20:06:23 27° NNW
Cosmos 1238 Rocket 4.1 20:03:02 10° N 20:08:47 63° NNE 20:08:47 63° NNE
ATLAS 5 CENTAUR R/B 3.9 20:16:39 10° NW 20:20:27 21° N 20:20:34 21° N
H-2A R/B 2.7 20:23:36 55° W 20:23:36 55° W 20:28:37 10° NNW
ATLAS 3B R/B 2.8 20:16:51 10° SW 20:22:23 63° SW 20:22:23 63° SW
Cosmos 2278 Rocket 4.3 20:26:34 10° W 20:31:03 23° NW 20:35:34 10° NNE
CENTAUR R/B 2.9 20:25:03 10° SW 20:29:52 59° WSW 20:29:52 59° WSW
Resurs 01 Rocket 4.1 20:43:42 18° NNW 20:43:42 18° NNW 20:44:51 10° NNW
ARGOS 4.4 20:46:44 39° WNW 20:46:44 39° WNW 20:51:07 10° NNW
